Location: Newark
(25.6108°S, 54.5803°W)
Time: 23:07:37
(UTC+00:00)

Tiros 1 - Pass Details

Date: 05 November 2020
Orbit: 630 x 664 km, 48.4° (Epoch: 29 November)

Event Time Altitude Azimuth Distance (km) Brightness Sun altitude
Rises 00:20:21 0° 243° (WSW) 3,008 11.7 -29.5°
Reaches altitude 10° 00:23:08 10° 257° (WSW) 2,087 10.5 -30.0°
Enters shadow 00:26:05 21° 294° (WNW) 1,459 9.2 -30.5°
Maximum altitude 00:26:51 22° 308° (NW) 1,423 - -30.6°
Drops below altitude 10° 00:30:32 10° 359° (N) 2,059 - -31.3°
Sets 00:33:16 0° 14° (NNE) 2,957 - -31.7°
